Location: Newark
(52.0178°N, 4.7453°W)
Time: 01:07:33
(UTC+00:00)

N. Korean satellite - Visible Passes

Search period start: 16 November 2019 00:00
Search period end: 26 November 2019 00:00
Orbit: 456 x 506 km, 97.2° (Epoch: 14 November)

Date Brightness Start Highest point End Pass type
(mag) Time Alt. Az. Time Alt. Az. Time Alt. Az.
16 Nov 8.4 05:50:36 10° NNE 05:54:05 36° E 05:57:31 10° SSE visible
16 Nov 9.2 18:05:01 10° SSW 18:08:05 25° W 18:11:10 10° NW visible
17 Nov 9.5 05:25:41 10° NE 05:28:32 20° E 05:31:20 10° SE visible
17 Nov 7.1 06:58:34 10° N 07:02:06 41° WNW 07:05:35 10° SW visible
17 Nov 7.9 17:39:02 10° S 17:42:33 45° W 17:46:08 10° NNW visible
18 Nov 10.2 05:01:35 10° ENE 05:02:53 11° E 05:04:10 10° ESE visible
18 Nov 6.5 06:33:02 10° N 06:36:47 77° WNW 06:40:28 10° SSW visible
18 Nov 6.7 17:13:27 10° SSE 17:17:07 88° W 17:20:51 10° NNW visible
19 Nov 7.4 06:07:41 10° NNE 06:11:23 56° E 06:15:00 10° S visible
19 Nov 9.8 18:22:59 10° SW 18:25:26 17° W 18:27:56 10° NW visible
20 Nov 8.7 05:42:33 10° NNE 05:45:52 30° E 05:49:09 10° SSE visible
20 Nov 8.8 17:56:35 10° SSW 17:59:50 30° W 18:03:10 10° NNW visible
21 Nov 9.7 05:17:47 10° NE 05:20:17 17° E 05:22:44 10° SE visible
21 Nov 6.8 06:50:21 10° N 06:53:57 49° WNW 06:57:31 10° SW visible
21 Nov 7.4 17:30:44 10° S 17:34:20 56° W 17:38:01 10° NNW visible
22 Nov 6.6 06:24:52 10° NNE 06:28:37 87° ESE 06:32:16 10° SSW visible
22 Nov 6.6 17:05:15 10° SSE 17:08:55 77° ENE 17:12:40 10° N visible
22 Nov 10.2 18:41:32 10° WSW 18:42:50 11° W 18:44:08 10° WNW visible
23 Nov 7.8 05:59:34 10° NNE 06:03:09 45° E 06:06:41 10° S visible
23 Nov 9.5 18:14:21 10° SW 18:17:10 20° W 18:20:00 10° NW visible
24 Nov 9.1 05:34:31 10° NE 05:37:37 25° E 05:40:40 10° SSE visible
24 Nov 7.3 07:07:43 10° N 07:11:04 32° WNW 07:14:22 10° SW visible
24 Nov 8.4 17:48:09 10° SSW 17:51:35 36° W 17:55:04 10° NNW visible
25 Nov 9.9 05:09:57 10° NE 05:11:58 14° E 05:13:58 10° ESE visible
25 Nov 6.6 06:42:06 10° N 06:45:46 60° WNW 06:49:21 10° SSW visible
25 Nov 7.0 17:22:25 10° S 17:26:06 69° WSW 17:29:51 10° NNW visible
